Flag for Norway Weather past 2 weeks in Fetsund, Norway

Now
47 °F

Cool.


Feels Like: 45 °F
Forecast: 36 / 63 °F
Wind: 3 mph from Northeast

Location: Oslo-Blindern


UV Index: 0 (Low)

Visibility: N/A


Pressure: 30.35 "Hg

Humidity: 47%

Dew point: 27 °F

Location of FetsundLocation

Historic Weather in Fetsund

°F

Fetsund temperature yesterday

Maximum temperature yesterday: 60 °F (at 5:00 PM)
Minimum temperature yesterday: 47 °F (at 11:00 PM)
Average temperature yesterday: 54 °F

Past Weeks' High & Low Weather Summary

 TemperatureHumidityPressure
High67 °F (Apr 22, 5:00 PM)97% (Apr 11, 9:00 AM)30.54 "Hg (Apr 11, 9:00 AM)
Low31 °F (Apr 16, 6:00 AM)24% (Apr 14, 3:00 PM)29.32 "Hg (Apr 13, 6:00 AM)
Average47 °F60%30.02 "Hg
* Reported Apr 9 9:00 PM — Apr 24 9:00 PM, Fetsund, Weather by CustomWeather, © 2014

Note: Actual official high and low records may vary slightly from our data, if they occured in-between our weather recording intervals... More about our weather records

Advertising

Historic Weather Conditions — Data for Previous 24 hours

 ConditionsComfort  
Time TempWeatherWind HumidityBarometerVisibility
9:00 PM
Apr 24
49 °FCool.2 mph44%30.35 "HgN/A
8:00 PM53 °FPartly sunny.3 mph31%30.34 "Hg47 mi
7:00 PM54 °FCool.1 mph27%30.35 "HgN/A
6:00 PM54 °FCool.3 mph27%30.37 "HgN/A
5:00 PM54 °FCool.2 mph26%30.38 "HgN/A
4:00 PM55 °FCool.2 mph26%30.40 "HgN/A
3:00 PM52 °FCool.3 mph29%30.43 "HgN/A
2:00 PM51 °FOvercast.2 mph33%30.45 "Hg43 mi
1:00 PM51 °FCool.2 mph30%30.47 "HgN/A
12:00 PM48 °FCool.3 mph37%30.49 "HgN/A
11:00 AM47 °FPartly sunny.3 mph42%30.50 "Hg43 mi
10:00 AM45 °FQuite cool.5 mph49%30.51 "HgN/A
9:00 AM43 °FQuite cool.2 mph49%30.52 "HgN/A
8:00 AM41 °FPartly sunny.3 mph53%30.53 "Hg43 mi
7:00 AM38 °FChilly.3 mph62%30.53 "HgN/A
6:00 AM36 °FChilly.3 mph70%30.53 "HgN/A
5:00 AM38 °FPassing clouds.2 mph66%30.54 "Hg47 mi
4:00 AM39 °FChilly.1 mph65%30.54 "HgN/A
3:00 AM40 °FQuite cool.3 mph63%30.53 "HgN/A
2:00 AM45 °FPassing clouds.3 mph50%30.52 "Hg47 mi
1:00 AM43 °FQuite cool.3 mph59%30.50 "HgN/A
12:00 AM46 °FCool.3 mph54%30.48 "HgN/A
11:00 PM
Apr 23
47 °FPassing clouds.3 mph49%30.46 "Hg43 mi
Weather by CustomWeather, © 2014

See weather overview